Location: PSU-Greenbush Astrophysical Observatory
(37.5140°N, 94.9880°W)
Time: 06:24:37
(UTC-05:00)

CUTE 1.7 + AOD 2 - Pass Details

Date: 22 February 2020
Orbit: 593 x 612 km, 97.6° (Epoch: 06 April)

Event Time Altitude Azimuth Distance (km) Brightness Sun altitude
Rises 04:58:34 0° 23° (NNE) 2,843 ? -25.0°
Reaches altitude 10° 05:00:57 10° 34° (NNE) 1,935 ? -24.6°
Maximum altitude 05:04:41 31° 97° (E) 1,053 ? -23.8°
Drops below altitude 10° 05:08:24 10° 160° (SSE) 1,918 ? -23.1°
Sets 05:10:44 0° 170° (S) 2,814 ? -22.6°
